• Join FlightAware (Why Join?)
  • Login
  • US Flag 
08:30AM EDT


 

Airport Tracker/Info


-or-


 

Live Flight TrackerFlight Track Log ✈ SWA268 ✈ 11-Apr-2013 ✈ KLAS - KABQ

Flight Track Log - Related Links

Times and Time Zones

All times are in EDT time to prevent confusion due to time zone crossing. See the SWA268 flight status page for this flight to view local times or setup timezone preferences in your user account.

Time Position Orientation Groundspeed Altitude Reporting Facility
EDT Latitude Longitude Course Direction KTS MPH feet Rate Location/Type
01:53PM 36.0753 -115.2136 271° West 178 205 4,500  Level Los Angeles Center
01:54PM 36.0750 -115.2381 269° West 192 221 5,200 2,220 Climbing Los Angeles Center
01:54PM 36.0400 -115.2706 217° Southwest 240 276 6,800 2,580 Climbing Los Angeles Center
01:55PM 36.0172 -115.2781 195° South 245 282 7,900 3,060 Climbing Los Angeles Center
01:55PM 35.9744 -115.2972 200° South 254 292 9,900 3,000 Climbing Los Angeles Center
01:56PM 35.9300 -115.2847 167° South 267 307 11,200 2,700 Climbing Los Angeles Center
01:57PM 35.8953 -115.1925 115° Southeast 314 361 14,400 2,640 Climbing Los Angeles Center
01:58PM 35.8978 -115.0964 88° East 345 397 16,600 2,580 Climbing Los Angeles Center
01:59PM 35.9017 -114.9394 88° East 373 429 19,800 2,760 Climbing Los Angeles Center
02:00PM 35.9050 -114.7967 88° East 411 473 22,400 2,460 Climbing Los Angeles Center
02:01PM 35.9092 -114.6208 88° East 427 491 25,000 1,980 Climbing Los Angeles Center
02:02PM 35.9117 -114.4617 89° East 459 528 26,500 1,620 Climbing Los Angeles Center
02:03PM 35.9156 -114.2919 88° East 490 564 28,400 1,860 Climbing Los Angeles Center
02:04PM 35.9192 -114.1183 88° East 505 581 30,400 1,980 Climbing Los Angeles Center
02:05PM 35.9228 -113.9447 88° East 507 583 32,500 2,040 Climbing Los Angeles Center
02:06PM 35.9039 -113.7739 98° East 502 578 34,700 1,740 Climbing Los Angeles Center
02:07PM 35.8733 -113.5881 101° East 498 573 36,200 1,080 Climbing Los Angeles Center
02:08PM 35.8461 -113.4189 101° East 503 579 37,000 360 Climbing Los Angeles Center
02:09PM 35.8200 -113.2503 101° East 501 577 37,000  Level Los Angeles Center
02:10PM 35.7931 -113.0825 101° East 500 575 37,000  Level Los Angeles Center
02:11PM 35.7592 -112.8806 102° East 500 575 37,000  Level Los Angeles Center
02:12PM 35.7314 -112.7122 101° East 499 574 37,000  Level Los Angeles Center
02:13PM 35.7036 -112.5453 102° East 497 572 37,000  Level Los Angeles Center
02:15PM 35.6761 -112.3775 101° East 500 575 37,000  Level Los Angeles Center
02:16PM 35.6472 -112.2100 102° East 502 578 37,000  Level Los Angeles Center
02:17PM 35.6189 -112.0428 102° East 502 578 37,000  Level Los Angeles Center
02:18PM 35.5897 -111.8744 102° East 505 581 37,000  Level Albuquerque Center
02:19PM 35.5867 -111.7050 91° East 497 572 37,000  Level Albuquerque Center
02:20PM 35.5811 -111.4994 92° East 502 578 37,000  Level Albuquerque Center
02:21PM 35.5758 -111.3353 92° East 501 577 37,000  Level Albuquerque Center
02:22PM 35.5694 -111.1433 92° East 503 579 37,000  Level Albuquerque Center
02:23PM 35.5642 -110.9786 92° East 504 580 37,000  Level Albuquerque Center
02:24PM 35.5578 -110.7869 92° East 504 580 37,000  Level Albuquerque Center
02:25PM 35.5536 -110.6236 92° East 503 579 37,000  Level Albuquerque Center
02:26PM 35.5447 -110.4294 93° East 508 585 37,000  Level Albuquerque Center
02:27PM 35.5392 -110.2644 92° East 507 583 37,000  Level Albuquerque Center
02:28PM 35.5325 -110.0989 93° East 508 585 37,000  Level Albuquerque Center
02:29PM 35.5247 -109.9058 93° East 509 586 37,000  Level Albuquerque Center
02:30PM 35.5186 -109.7411 93° East 508 585 37,000  Level Albuquerque Center
02:31PM 35.5103 -109.5478 93° East 508 585 37,000  Level Albuquerque Center
02:32PM 35.5028 -109.3808 93° East 512 589 37,000  Level Albuquerque Center
02:33PM 35.4922 -109.1875 94° East 512 589 37,000  Level Albuquerque Center
02:34PM 35.4844 -109.0233 93° East 509 586 37,000 -480 Level Albuquerque Center
02:35PM 35.4772 -108.8333 93° East 505 581 36,100 -1,080 Descending Albuquerque Center
02:36PM 35.4817 -108.6728 88° East 498 573 34,900 -1,920 Descending Albuquerque Center
02:37PM 35.4861 -108.4839 88° East 498 573 32,200 -2,280 Descending Albuquerque Center
02:38PM 35.4878 -108.3244 89° East 495 570 30,300 -2,100 Descending Albuquerque Center
02:39PM 35.4742 -108.1458 95° East 478 550 27,900 -2,100 Descending Albuquerque Center
02:40PM 35.4644 -107.9967 95° East 465 535 26,000 -2,040 Descending Albuquerque Center
02:41PM 35.4533 -107.8275 95° East 452 520 23,800 -2,040 Descending Albuquerque Center
02:42PM 35.4428 -107.6867 95° East 439 505 21,900 -1,980 Descending Albuquerque Center
02:43PM 35.4333 -107.5311 94° East 417 480 19,800 -1,980 Descending Albuquerque Center
02:44PM 35.4289 -107.4633 95° East 403 464 18,900 -1,680 Descending Albuquerque Center
02:44PM 35.4264 -107.4028 93° East 402 463 18,100 -1,860 Descending Albuquerque Center
02:45PM 35.3878 -107.2942 114° Southeast 383 441 16,300 -1,680 Descending Albuquerque Center
02:46PM 35.3306 -107.1811 122° Southeast 365 420 14,900 -1,440 Descending Albuquerque Center
02:47PM 35.3019 -107.1261 123° Southeast 357 411 14,000 -1,380 Descending Albuquerque Center
02:47PM 35.2797 -107.0717 117° Southeast 356 410 13,300 -1,620 Descending Albuquerque Center
02:48PM 35.2553 -106.9767 107° East 338 389 11,900 -1,560 Descending Albuquerque Center
02:48PM 35.2506 -106.9603 109° East 343 395 11,700 -1,500 Descending Albuquerque Center
02:49PM 35.2308 -106.8842 108° East 335 386 10,600 -1,560 Descending Albuquerque Center
02:50PM 35.2219 -106.8514 108° East 338 389 10,100 -1,140 Descending Albuquerque Center
02:50PM 35.2006 -106.7828 111° Southeast 316 364 9,500 -900 Descending Albuquerque Center
02:51PM 35.1942 -106.7506 104° East 320 368 9,200 -540 Descending Albuquerque Center
02:51PM 35.1736 -106.6886 112° Southeast 259 298 9,000 -240 Descending Albuquerque Center
02:52PM 35.1658 -106.6672 114° Southeast 285 328 9,000  Level Albuquerque Center
02:52PM 35.1372 -106.6147 124° Southeast 244 281 9,000 -420 Level Albuquerque Center
02:53PM 35.1292 -106.5931 114° Southeast 266 306 8,600 -1,320 Descending Albuquerque Center
02:53PM 35.1072 -106.5525 123° Southeast 246 283 7,800 -1,500 Descending Albuquerque Center
02:54PM 35.0864 -106.5142 124° Southeast 241 277 7,100 -1,140 Descending Albuquerque Center
02:54PM 35.0672 -106.5083 166° South 187 215 6,700 -1,020 Descending Albuquerque Center
02:55PM 35.0453 -106.5261 214° Southwest 197 227 6,100 -900 Descending Albuquerque Center
02:55PM 35.0428 -106.5508 263° West 136 157 5,800 -540 Descending Albuquerque Center
02:56PM 35.0439 -106.5744 273° West 159 183 5,600 -360 Descending Albuquerque Center